Погода в Медянках Татарских

Россия / Тюменская область     58°08′39″N   68°13′09″E
темп.,
°C
ветер,
м/с
пор.,
м/с
влажн.,
%
обл.,
%
осадки,
мм/ч
давл.,
гПа
погр.,
м
16 мая, пн
пн1623:00+12ююз356276 0.1 100474
02:00+11ю3568100 0.0 100482
05:00+10ю3583100 0.4 1004116
08:00+14ю466998 0.1 1003457
11:00+18ю5649100 0.6 10011599
14:00+14ю5675100 1.8 1000541
17:00+13ююв128498 3.5 999241
20:00+12в118697 0.0 99817
17 мая, вт
вт1723:00+10всв2294100 0.0 99725
02:00+10всв2296100 0.4 99557
05:00+10всв119798 1.3 99460
08:00+11с2393100 0.0 995230
11:00+15ссв127097 0.3 996863
14:00+17сз126098 3.0 9971131
17:00+16зюз3464100 5.7 998894
20:00+13юз61081100 1.0 1000435
18 мая, ср
ср1823:00+11юз4108961 1.3 1002314
02:00+10юз489473 0.0 1003207
05:00+10ююз369192 0.0 1004175
08:00+12ю467959 0.0 1005309
11:00+18ю575398 0.0 10051227
14:00+19ю684679 0.4 10042277
17:00+17ююз3659100 0.4 1003209
20:00+15ююз3764100 0.2 1003150
19 мая, чт
чт1923:00+11ююз347491 0.2 100251
02:00+10ююв3375100 0.0 100030
05:00+10ююз237972 0.0 99981
08:00+13юз4470100 0.0 999774
11:00+14зюз4566100 0.6 999950
14:00+18зюз6839100 0.1 9982557
17:00+16зюз7852100 0.4 9991525
20:00+12зюз6106858 0.3 1000686
20 мая, пт
пт2023:00+10юз5108087 2.2 1001361
02:00+7зюз489461 0.3 1002249
05:00+7зюз4108796 0.3 1004581
08:00+9зюз5969100 0.0 10051110
11:00+12зюз6954100 0.0 10061712
14:00+14зюз7945100 0.0 10062056
17:00+12зюз475298 0.0 10061068
20:00+11зюз116544 0.0 100615